Weather History for Wilmington, NC

Change the Weather History Date:

Saturday, September 14, 2013

  Actual Average Record
Temperature  
Mean Temperature 75 °F 75 °F  
Max Temperature 82 °F 84 °F 94 °F (1991)
Min Temperature 67 °F 66 °F 49 °F (1985)
Degree Days  
Heating Degree Days 0 0  
Month to date heating degree days 0 0  
Since 1 July heating degree days 0 0  
Cooling Degree Days 10 10  
Month to date cooling degree days 196 166  
Year to date cooling degree days 1686 1789  
Growing Degree Days 24 (Base 50)    
Moisture  
Dew Point 62 °F    
Average Humidity 69    
Maximum Humidity 84    
Minimum Humidity 54    
Precipitation  
Precipitation 0.00 in 0.28 in 5.87 in (2005)
Month to date precipitation 0.11 3.82  
Year to date precipitation 42.60 42.79  
Sea Level Pressure  
Sea Level Pressure 29.97 in    
Wind  
Wind Speed 9 mph (NNE)    
Max Wind Speed 20 mph    
Max Gust Speed 24 mph    
Visibility 10 miles    
Events      
T = Trace of Precipitation, MM = Missing Value Source: NWS Daily Summary

Daily Weather History Graph

Daily Weather History Graph

Search for Another Location

Airport:

Trip Planner

Search our weather history database for the weather conditions in past years. The results will help you decide how hot, cold, wet, or windy it might be!

Date:

Astronomy

Sep. 14, 2013 Rise Set
Actual Time 6:54 AM EDT 7:19 PM EDT
Civil Twilight 6:29 AM EDT 7:44 PM EDT
Nautical Twilight 5:59 AM EDT 8:13 PM EDT
Astronomical Twilight 5:29 AM EDT 8:43 PM EDT
Moon 3:49 PM EDT (9/14) 1:34 AM EDT (9/14)
Length of Visible Light 13h 15m
Length of Day
12h 25m
Waxing Gibbous, 72% of the Moon is Illuminated
Sep 14
Waxing Gibbous
Sep 19
Full
Sep 26
Last Quarter
Oct 4
New
Oct 11
First Quarter

Hourly Weather History & Observations

Time (EDT) Temp. Heat Index Dew Point Humidity Pressure Visibility Wind Dir Wind Speed Gust Speed Precip Events Conditions
12:53 AM 72.0 °F - 64.0 °F 76% 29.83 in 10.0 mi NNE 5.8 mph - N/A   Mostly Cloudy
1:53 AM 71.1 °F - 64.9 °F 81% 29.83 in 10.0 mi NNE 10.4 mph - N/A   Clear
2:53 AM 70.0 °F - 64.9 °F 84% 29.84 in 10.0 mi NNE 5.8 mph - N/A   Partly Cloudy
3:53 AM 69.1 °F - 64.0 °F 84% 29.85 in 10.0 mi NNE 9.2 mph - N/A   Scattered Clouds
4:53 AM 70.0 °F - 64.0 °F 81% 29.87 in 10.0 mi North 5.8 mph - N/A   Mostly Cloudy
5:53 AM 69.1 °F - 64.0 °F 84% 29.88 in 10.0 mi NNE 6.9 mph - N/A   Scattered Clouds
6:53 AM 68.0 °F - 63.0 °F 84% 29.91 in 10.0 mi NNE 9.2 mph - N/A   Partly Cloudy
7:53 AM 66.9 °F - 60.1 °F 79% 29.94 in 10.0 mi North 8.1 mph - N/A   Clear
8:53 AM 69.1 °F - 57.0 °F 65% 29.95 in 10.0 mi NNE 15.0 mph 21.9 mph N/A   Partly Cloudy
9:53 AM 71.1 °F - 57.0 °F 61% 29.97 in 10.0 mi NNE 16.1 mph 23.0 mph N/A   Clear
10:53 AM 73.9 °F - 59.0 °F 59% 29.99 in 10.0 mi NNE 15.0 mph - N/A   Clear
11:53 AM 77.0 °F - 60.1 °F 56% 29.99 in 10.0 mi NNE 15.0 mph 20.7 mph N/A   Clear
12:53 PM 80.1 °F 81.2 °F 62.1 °F 54% 30.00 in 10.0 mi NNE 6.9 mph - N/A   Partly Cloudy
1:53 PM 81.0 °F 81.9 °F 62.1 °F 52% 30.00 in 10.0 mi North 12.7 mph - N/A   Scattered Clouds
2:53 PM 80.1 °F 81.2 °F 62.1 °F 54% 30.00 in 10.0 mi NNE 6.9 mph - N/A   Mostly Cloudy
3:53 PM 80.1 °F 81.5 °F 63.0 °F 56% 29.99 in 10.0 mi NE 9.2 mph - N/A   Scattered Clouds
4:53 PM 81.0 °F 82.2 °F 63.0 °F 54% 30.00 in 10.0 mi NE 10.4 mph - N/A   Mostly Cloudy
5:53 PM 79.0 °F - 63.0 °F 58% 30.01 in 10.0 mi NNE 9.2 mph - N/A   Partly Cloudy
6:53 PM 75.9 °F - 63.0 °F 64% 30.03 in 10.0 mi NE 6.9 mph - N/A   Clear
7:53 PM 73.0 °F - 64.0 °F 73% 30.05 in 10.0 mi NE 5.8 mph - N/A   Overcast
8:53 PM 72.0 °F - 63.0 °F 73% 30.07 in 10.0 mi NE 5.8 mph - N/A   Mostly Cloudy
9:53 PM 70.0 °F - 63.0 °F 78% 30.09 in 10.0 mi NE 4.6 mph - N/A   Scattered Clouds
10:53 PM 69.1 °F - 64.0 °F 84% 30.10 in 10.0 mi NE 9.2 mph - N/A   Clear
11:53 PM 68.0 °F - 63.0 °F 84% 30.11 in 10.0 mi NE 6.9 mph - N/A   Clear